Regional Weather Roundup
Issued by NWS

Home | Current Version | Previous Version | Text Only | Print | Product List | Glossary On
Versions: 1 2 3 4 5 6 7 8 9 10 11 12 13 14 15 16 17 18 19 20 21 22 23 24 25 26 27 28 29 30 31 32 33 34 35 36 37 38 39 40 41 42 43 44 45 46 47 48 49 50
000
ASUS43 KLOT 160500
RWRIL

ILLINOIS REGIONAL WEATHER ROUNDUP
NATIONAL WEATHER SERVICE CHICAGO/ROMEOVILLE IL
1200 AM CDT WED APR 16 2014

NOTE: "FAIR" INDICATES FEW OR NO CLOUDS BELOW 12,000 FEET WITH NO
SIGNIFICANT WEATHER AND/OR OBSTRUCTIONS TO VISIBILITY.

* THESE STATIONS ARE NOT UNDER NWS QUALITY CONTROL. THEY ALSO MAY NOT
  REPORT WEATHER SUCH AS PRECIPITATION OR FOG.

ILZ001-002-007-009-015-016-024-160600-
NORTHWEST ILLINOIS

CITY           SKY/WX    TMP DP  RH WIND       PRES   REMARKS
MOLINE         CLEAR     27  18  69 E7        30.16S WCI  19
STERLING*      CLEAR     28  23  80 SE3       30.18S
$$

ILZ003-004-008-010-011-017-018-160600-
NORTH CENTRAL ILLINOIS

CITY           SKY/WX    TMP DP  RH WIND       PRES   REMARKS
ROCKFORD       CLEAR     29  22  75 SE3       30.20S
$$

ILZ005-006-012>014-019>023-160600-
NORTHEAST ILLINOIS

CITY           SKY/WX    TMP DP  RH WIND       PRES   REMARKS
CHICAGO-OHARE  CLEAR     30  19  63 S5        30.20R WCI  25
CHICAGO-MIDWAY CLEAR     34  21  59 S5        30.21R WCI  30
AURORA         CLEAR     29  22  75 S5        30.21R WCI  24
WAUKEGAN       CLEAR     26  21  81 CALM      30.19S
DUPAGE AIRPORT CLEAR     29  21  72 S5        30.20R WCI  24
WHEELING       CLEAR     31  21  66 CALM      30.21S
NORTHERLY ISL    N/A     34  20  57 S6          N/A  WCI  29
$$

LMZ740>746-160600-
SOUTHERN LAKE MICHIGAN

STATION/POSITION SKY/WX   TEMP    WIND        PRES    VSBY  WAVE
                          AIR SEA DIR/SP/G                  HT/PER
                          (F)     (DEG/KT/KT) (MB)    (MI)  (FT/S)
WAUKEGAN HARBOR            34     190/  8/  9 1024.0S
HARRISON CRIB              36     180/  8/ 10   N/A
BURNHAM HARBOR             33     190/  4/  6   N/A
CALUMET HARBOR             33     150/  4/  6 1023.7R
MICHIGAN CITY              31     130/  5/  7   N/A
$$

ILZ025>027-034>036-040-047-049-050-058-095>099-160600-
WEST-CENTRAL ILLINOIS

CITY           SKY/WX    TMP DP  RH WIND       PRES   REMARKS
QUINCY         PTCLDY    34  24  67 SE8       30.14F WCI  27
$$

ILZ028>032-037-038-041>044-048-051>054-059>061-160600-
CENTRAL ILLINOIS

CITY           SKY/WX    TMP DP  RH WIND       PRES   REMARKS
DECATUR        CLEAR     32  22  66 S9        30.21S WCI  24
PEORIA         CLEAR     35  19  52 SE5       30.19S WCI  31
SPRINGFIELD    CLEAR     35  23  61 S6        30.21R WCI  30
TAYLORVILLE    NOT AVBL
$$

ILZ033-039-045-046-055>057-062-063-160600-
EAST-CENTRAL ILLINOIS

CITY           SKY/WX    TMP DP  RH WIND       PRES   REMARKS
CHAMPAIGN      CLEAR     31  25  78 SE8       30.22R WCI  23
MATTOON        CLEAR     31  23  72 SE5       30.22S WCI  26
$$

ILZ079-100>102-160600-
SOUTHWEST ILLINOIS

CITY           SKY/WX    TMP DP  RH WIND       PRES   REMARKS
BELLEVILLE     CLEAR     36  26  68 SE6       30.22S WCI  31
CAHOKIA*       CLEAR     37  26  64 S7        30.22S WCI  32
$$

ILZ064>066-069>071-074>076-080>082-084>086-088>090-092>094-160600-
SOUTH-CENTRAL ILLINOIS

CITY           SKY/WX    TMP DP  RH WIND       PRES   REMARKS
CARBONDALE     CLEAR     35  25  66 CALM      30.25R
MT. VERNON     CLEAR     28  18  64 CALM      30.25R
$$

ILZ067-068-072-073-078-083-087-091-160600-
SOUTHEAST ILLINOIS

CITY           SKY/WX    TMP DP  RH WIND       PRES   REMARKS
$$

ABBREVIATIONS USED IN REMARKS
   TC - TEMPERATURE IN CELSIUS
  WCI - WIND CHILL INDEX
   HX - HEAT INDEX
  VSB - VISIBILITY
$$




USA.gov is the U.S. government's official web portal to all federal, state and local government web resources and services.